Regional Weather Roundup
Issued by NWS Cleveland, OH

Home | Current Version | Previous Version | Graphics & Text | Print | Product List | Glossary On
Versions: 1 2 3 4 5 6 7 8 9 10 11 12 13 14 15 16 17 18 19 20 21 22 23 24 25 26 27 28 29 30 31 32 33 34 35 36 37 38 39 40 41 42 43 44 45 46 47 48 49 50
000
ASUS41 KCLE 150710
RWRCLE
OHIO REGIONAL WEATHER ROUNDUP
NATIONAL WEATHER SERVICE CLEVELAND, OH
200 AM EST FRI DEC 15 2017

NOTE: "FAIR" INDICATES FEW OR NO CLOUDS BELOW 12,000 FEET WITH NO
SIGNIFICANT WEATHER AND/OR OBSTRUCTIONS TO VISIBILITY.

OHZ001>008-015>018-024>027-034-035-043-044-150800-
   NORTHWEST OHIO

CITY           SKY/WX    TMP DP  RH WIND       PRES   REMARKS
DEFIANCE       CLOUDY    18  10  71 S3        30.02F
FINDLAY        CLOUDY    14   7  73 S6        30.02F WCI   5
TOLEDO EXPRESS CLOUDY    17   6  62 S7        30.02F WCI   8
TOLEDO EXEC    CLOUDY    11   4  73 S5        30.04F WCI   3
LIMA           CLOUDY    16  12  84 S6        30.02F WCI   7
$$

OHZ009>014-019>023-028>033-038-089-150800-
   NORTHEAST OHIO

CITY           SKY/WX    TMP DP  RH WIND       PRES   REMARKS
CLE-HOPKINS    MOCLDY    12   6  77 S7        30.06F WCI   1
CLE-LAKEFRONT  PTCLDY    14   7  73 S8        30.04F WCI   3
CUY CO. ARPT   NOT AVBL
LORAIN-ELYRIA  CLEAR      0  -7  72 S5        30.04F WCI -10
ASHTABULA      CLOUDY     8   5  87 S7        30.02F WCI  -3
AKRON-CANTON   CLOUDY    12   9  87 CALM      30.01F FOG
WOOSTER        NOT AVBL
MANSFIELD      CLOUDY    10   5  80 S3        30.00F
YOUNGSTOWN     CLOUDY    13   9  84 SW3       30.01F
$$

OHZ042-051>053-060>062-070>072-077>081-150800-
  SOUTHWEST OHIO

CITY           SKY/WX    TMP DP  RH WIND       PRES   REMARKS
CINC-COVINGTON CLOUDY    24  17  74 CALM      30.04F
CINC-LUNKEN    CLOUDY    25  17  72 CALM      30.09F
HAMILTON       CLOUDY    21  18  88 CALM      30.08F
DAYTON         CLOUDY    20  16  84 SE5       30.04F WCI  13
WRIGHT-PAT AFB CLOUDY    18  16  91 CALM      30.04F
DAYTON GENERAL CLOUDY    20  16  84 S3        30.03F
WILMINGTON     CLOUDY    20  18  92 CALM      30.03F
$$

OHZ036-037-039>041-045>050-054>059-063>069-073>076-082>088-150800-
  CENTRAL AND SOUTHEAST OHIO

CITY           SKY/WX    TMP DP  RH WIND       PRES   REMARKS
COLUMBUS       CLOUDY    20  15  81 CALM      30.05F
OSU AIRPORT    PTCLDY    18  14  84 CALM      30.04F
BOLTON FIELD   PTCLDY    18  15  89 CALM      30.05S
RICKENBACK AFB PTCLDY    20  17  86 CALM      30.05F
NEWARK         CLOUDY    19  15  84 CALM      30.04S
MARION         NOT AVBL
LANCASTER      CLOUDY    20  16  84 CALM      30.05F
ZANESVILLE     CLOUDY    20  14  77 CALM      30.04F
NEW PHILLY     NOT AVBL
$$




USA.gov is the U.S. government's official web portal to all federal, state and local government web resources and services.